| time (UTC) | temp F | wind direction | speed knots | gust knots | rain 1hr in | rain 24hr in | rain mn in | humidity % | barometer mb |
| 20260504214905 | 73 | 229 | 7.0 | 13.9 | 0.00 | 0.00 | 0.00 | 53 | 1005.8 |
| 20260504214205 | 72 | 228 | 7.0 | 14.8 | 0.00 | 0.00 | 0.00 | 55 | 1005.8 |
| 20260504213506 | 72 | 230 | 5.2 | 12.2 | 0.00 | 0.00 | 0.00 | 57 | 1005.8 |
| 20260504212805 | 72 | 226 | 6.1 | 16.5 | 0.00 | 0.00 | 0.00 | 57 | 1005.9 |
| 20260504212106 | 72 | 229 | 7.0 | 16.5 | 0.00 | 0.00 | 0.00 | 57 | 1005.9 |
| 20260504211427 | 71 | 225 | 6.1 | 12.2 | 0.00 | 0.00 | 0.00 | 61 | 1005.9 |
| 20260504210705 | 70 | 220 | 5.2 | 12.2 | 0.00 | 0.00 | 0.00 | 61 | 1005.8 |
| 20260504210005 | 70 | 232 | 5.2 | 12.2 | 0.00 | 0.00 | 0.00 | 61 | 1006.2 |
| 20260504205626 | 70 | 234 | 5.2 | 12.2 | 0.00 | 0.00 | 0.00 | 63 | 1006.6 |
| 20260504204905 | 69 | 236 | 5.2 | 13.0 | 0.00 | 0.00 | 0.00 | 65 | 1006.7 |
| 20260504204205 | 68 | 234 | 4.3 | 13.0 | 0.00 | 0.00 | 0.00 | 68 | 1006.9 |
| 20260504203505 | 68 | 228 | 5.2 | 11.3 | 0.00 | 0.00 | 0.00 | 70 | 1007.0 |
| 20260504202805 | 67 | 227 | 5.2 | 9.6 | 0.00 | 0.00 | 0.00 | 69 | 1007.0 |
| 20260504202105 | 67 | 228 | 3.5 | 8.7 | 0.00 | 0.00 | 0.00 | 72 | 1007.0 |
| 20260504201405 | 66 | 219 | 2.6 | 7.8 | 0.00 | 0.00 | 0.00 | 72 | 1006.8 |
| 20260504200705 | 66 | 212 | 3.5 | 7.0 | 0.00 | 0.00 | 0.00 | 72 | 1006.7 |
| 20260504200006 | 66 | 211 | 2.6 | 7.0 | 0.00 | 0.00 | 0.00 | 73 | 1006.9 |
| 20260504195605 | 66 | 218 | 2.6 | 5.2 | 0.00 | 0.00 | 0.00 | 73 | 1007.1 |
| 20260504194905 | 65 | 230 | 2.6 | 5.2 | 0.00 | 0.00 | 0.00 | 72 | 1007.2 |
| 20260504194206 | 66 | 231 | 4.3 | 10.4 | 0.00 | 0.00 | 0.00 | 72 | 1007.6 |
| 20260504193527 | 66 | 230 | 4.3 | 13.9 | 0.00 | 0.00 | 0.00 | 70 | 1007.7 |
| 20260504192805 | 67 | 222 | 6.1 | 13.9 | 0.00 | 0.00 | 0.00 | 68 | 1007.8 |
| 20260504192126 | 68 | 232 | 9.6 | 20.0 | 0.00 | 0.00 | 0.00 | 63 | 1008.8 |
| 20260504191406 | 69 | 233 | 7.8 | 18.2 | 0.00 | 0.00 | 0.00 | 59 | 1008.6 |
| 20260504190705 | 69 | 232 | 9.6 | 19.1 | 0.00 | 0.00 | 0.00 | 58 | 1008.2 |
| 20260504190005 | 70 | 234 | 10.4 | 21.7 | 0.00 | 0.00 | 0.00 | 58 | 1008.2 |
| 20260504185605 | 70 | 234 | 8.7 | 20.0 | 0.00 | 0.00 | 0.00 | 57 | 1008.0 |
| 20260504184905 | 70 | 232 | 8.7 | 16.5 | 0.00 | 0.00 | 0.00 | 58 | 1007.8 |
| 20260504184205 | 71 | 230 | 6.1 | 16.5 | 0.00 | 0.00 | 0.00 | 58 | 1007.4 |
| 20260504183526 | 71 | 224 | 6.1 | 16.5 | 0.00 | 0.00 | 0.00 | 59 | 1007.6 |
| 20260504182805 | 71 | 219 | 6.1 | 14.8 | 0.00 | 0.00 | 0.00 | 59 | 1007.5 |
| 20260504182105 | 71 | 225 | 6.1 | 13.0 | 0.00 | 0.00 | 0.00 | 59 | 1007.2 |
| 20260504181405 | 71 | 225 | 7.0 | 16.5 | 0.00 | 0.00 | 0.00 | 57 | 1007.2 |
| 20260504180706 | 71 | 221 | 6.1 | 15.6 | 0.00 | 0.00 | 0.00 | 58 | 1007.1 |
| 20260504180026 | 71 | 211 | 6.1 | 13.0 | 0.00 | 0.00 | 0.00 | 58 | 1007.2 |
| 20260504175606 | 70 | 214 | 5.2 | 13.0 | 0.00 | 0.00 | 0.00 | 58 | 1007.3 |
| 20260504174905 | 70 | 215 | 5.2 | 11.3 | 0.00 | 0.00 | 0.00 | 59 | 1007.4 |
| 20260504174205 | 70 | 231 | 6.1 | 13.0 | 0.00 | 0.00 | 0.00 | 63 | 1007.3 |
| 20260504173505 | 69 | 224 | 7.8 | 16.5 | 0.00 | 0.00 | 0.00 | 59 | 1007.4 |
| 20260504172805 | 69 | 221 | 7.0 | 16.5 | 0.00 | 0.00 | 0.00 | 58 | 1007.5 |
| 20260504172105 | 69 | 227 | 6.1 | 11.3 | 0.00 | 0.00 | 0.00 | 58 | 1007.5 |
| 20260504171427 | 69 | 231 | 6.1 | 13.0 | 0.00 | 0.00 | 0.00 | 58 | 1007.6 |
| 20260504170706 | 69 | 224 | 5.2 | 12.2 | 0.00 | 0.00 | 0.00 | 59 | 1007.6 |
| 20260504150705 | 63 | 232 | 7.0 | 13.0 | 0.00 | 0.00 | 0.00 | 63 | 1008.4 |
| 20260504140704 | 61 | 221 | 5.2 | 13.0 | 0.00 | 0.00 | 0.00 | 64 | 1008.8 |
| 20260504130705 | 58 | 218 | 3.5 | 8.7 | 0.00 | 0.00 | 0.00 | 67 | 1009.0 |
| 20260504081403 | 52 | 213 | 2.6 | 5.2 | 0.00 | 0.00 | 0.00 | 66 | 1009.9 |
| 20260504080703 | 52 | 209 | 1.7 | 6.1 | 0.00 | 0.00 | 0.00 | 66 | 1010.0 |
| 20260504050708 | 54 | 215 | 2.6 | 6.1 | 0.00 | 0.00 | 0.00 | 60 | 1011.6 |
| 20260504050007 | 54 | 216 | 2.6 | 6.1 | 0.00 | 0.00 | 0.00 | 60 | 1011.6 |
| 20260504045608 | 54 | 218 | 2.6 | 7.0 | 0.00 | 0.00 | 0.00 | 60 | 1011.6 |
| 20260504044907 | 54 | 213 | 2.6 | 7.0 | 0.00 | 0.00 | 0.00 | 60 | 1011.7 |
| 20260504044207 | 54 | 205 | 1.7 | 6.1 | 0.00 | 0.00 | 0.00 | 60 | 1011.8 |
| 20260504043507 | 54 | 209 | 1.7 | 6.1 | 0.00 | 0.00 | 0.00 | 60 | 1011.8 |
| 20260504042807 | 54 | 205 | 1.7 | 7.8 | 0.00 | 0.00 | 0.00 | 60 | 1011.8 |
| 20260504042106 | 54 | 211 | 1.7 | 7.8 | 0.00 | 0.00 | 0.00 | 59 | 1011.9 |
| 20260504041406 | 54 | 208 | 2.6 | 9.6 | 0.00 | 0.00 | 0.00 | 60 | 1011.9 |
| 20260504040707 | 54 | 202 | 1.7 | 9.6 | 0.00 | 0.00 | 0.00 | 61 | 1012.1 |
| 20260504040008 | 53 | 226 | 1.7 | 5.2 | 0.00 | 0.00 | 0.00 | 63 | 1012.1 |
| 20260504035606 | 53 | 223 | 1.7 | 5.2 | 0.00 | 0.00 | 0.00 | 63 | 1012.1 |
| 20260504034906 | 53 | 196 | 0.9 | 3.5 | 0.00 | 0.00 | 0.00 | 64 | 1012.1 |
| 20260504034207 | 53 | 218 | 0.9 | 3.5 | 0.00 | 0.00 | 0.00 | 64 | 1012.3 |
| 20260504033506 | 53 | 200 | 0.0 | 2.6 | 0.00 | 0.00 | 0.00 | 65 | 1012.3 |
| 20260504032806 | 53 | 142 | 0.0 | 1.7 | 0.00 | 0.00 | 0.00 | 64 | 1012.3 |
| 20260504032106 | 52 | 141 | 0.0 | 1.7 | 0.00 | 0.00 | 0.00 | 64 | 1012.3 |
| 20260504031407 | 52 | 143 | 0.0 | 3.5 | 0.00 | 0.00 | 0.00 | 64 | 1012.4 |
| 20260504030706 | 52 | 168 | 0.9 | 3.5 | 0.00 | 0.00 | 0.00 | 63 | 1012.4 |
| 20260504030007 | 52 | 199 | 0.9 | 2.6 | 0.00 | 0.00 | 0.00 | 64 | 1012.5 |
| 20260504025606 | 52 | 169 | 0.9 | 3.5 | 0.00 | 0.00 | 0.00 | 65 | 1012.6 |
| 20260504024907 | 52 | 150 | 0.9 | 3.5 | 0.00 | 0.00 | 0.00 | 66 | 1012.7 |
| 20260504024227 | 51 | 111 | 0.0 | 1.7 | 0.00 | 0.00 | 0.00 | 68 | 1012.7 |
| 20260504023507 | 51 | 106 | 0.0 | 1.7 | 0.00 | 0.00 | 0.00 | 70 | 1012.7 |
| 20260504022807 | 52 | 105 | 0.0 | 2.6 | 0.00 | 0.00 | 0.00 | 73 | 1012.7 |
| 20260504022106 | 52 | 0 | 0.0 | 0.0 | 0.00 | 0.00 | 0.00 | 72 | 1012.7 |
| 20260504021406 | 52 | 0 | 0.0 | 0.0 | 0.00 | 0.00 | 0.00 | 72 | 1012.7 |
| 20260504020727 | 52 | 0 | 0.0 | 0.0 | 0.00 | 0.00 | 0.00 | 72 | 1012.7 |
| 20260504020006 | 52 | 87 | 0.9 | 2.6 | 0.00 | 0.00 | 0.00 | 71 | 1012.6 |
| 20260504015606 | 52 | 86 | 0.9 | 2.6 | 0.00 | 0.00 | 0.00 | 70 | 1012.7 |
| 20260504014906 | 52 | 75 | 0.9 | 2.6 | 0.00 | 0.00 | 0.00 | 71 | 1012.6 |
| 20260504014206 | 52 | 73 | 1.7 | 2.6 | 0.00 | 0.00 | 0.00 | 71 | 1012.5 |
| 20260504013506 | 52 | 76 | 1.7 | 2.6 | 0.00 | 0.00 | 0.00 | 70 | 1012.6 |
| 20260504012806 | 51 | 73 | 1.7 | 2.6 | 0.00 | 0.00 | 0.00 | 70 | 1012.6 |
| 20260504012107 | 51 | 74 | 1.7 | 3.5 | 0.00 | 0.00 | 0.00 | 71 | 1012.7 |
| 20260504011406 | 51 | 92 | 0.9 | 2.6 | 0.00 | 0.00 | 0.00 | 72 | 1012.8 |
| 20260504010707 | 51 | 98 | 0.9 | 2.6 | 0.00 | 0.00 | 0.00 | 71 | 1012.8 |
| 20260504010006 | 51 | 101 | 0.9 | 3.5 | 0.00 | 0.00 | 0.00 | 71 | 1012.7 |
| 20260504005627 | 52 | 89 | 1.7 | 4.3 | 0.00 | 0.00 | 0.00 | 71 | 1012.7 |
| 20260504004906 | 52 | 79 | 1.7 | 4.3 | 0.00 | 0.00 | 0.00 | 71 | 1012.6 |
| 20260504004227 | 52 | 77 | 0.9 | 3.5 | 0.00 | 0.00 | 0.00 | 71 | 1012.7 |
| 20260504003506 | 52 | 72 | 0.9 | 2.6 | 0.00 | 0.00 | 0.00 | 71 | 1012.6 |
| 20260504002807 | 52 | 79 | 0.9 | 2.6 | 0.00 | 0.00 | 0.00 | 72 | 1012.5 |
| 20260504002106 | 52 | 69 | 1.7 | 6.1 | 0.00 | 0.00 | 0.00 | 71 | 1012.6 |
| 20260504001406 | 52 | 73 | 1.7 | 6.1 | 0.00 | 0.00 | 0.00 | 71 | 1012.6 |
| 20260504000706 | 52 | 96 | 1.7 | 3.5 | 0.00 | 0.00 | 0.00 | 72 | 1012.3 |
| 20260504000027 | 52 | 98 | 1.7 | 5.2 | 0.00 | 0.00 | 0.00 | 71 | 1012.4 |
| 20260503235606 | 52 | 97 | 2.6 | 7.0 | 0.00 | 0.00 | 0.00 | 72 | 1012.2 |
| 20260503234906 | 52 | 95 | 2.6 | 7.0 | 0.00 | 0.00 | 0.00 | 71 | 1012.1 |
| 20260503234206 | 52 | 96 | 1.7 | 6.1 | 0.00 | 0.00 | 0.00 | 72 | 1012.2 |
| 20260503233527 | 52 | 99 | 2.6 | 6.1 | 0.00 | 0.00 | 0.00 | 72 | 1012.3 |
| 20260503232806 | 52 | 91 | 2.6 | 5.2 | 0.00 | 0.00 | 0.00 | 72 | 1012.5 |
| 20260503232106 | 52 | 100 | 1.7 | 5.2 | 0.00 | 0.00 | 0.00 | 71 | 1012.8 |
| 20260503231407 | 52 | 76 | 1.7 | 5.2 | 0.00 | 0.00 | 0.00 | 71 | 1012.9 |
| 20260503230726 | 52 | 83 | 2.6 | 5.2 | 0.00 | 0.00 | 0.00 | 72 | 1013.1 |
| 20260503230027 | 52 | 89 | 2.6 | 5.2 | 0.00 | 0.00 | 0.00 | 70 | 1013.2 |
| 20260503225605 | 52 | 81 | 2.6 | 5.2 | 0.00 | 0.00 | 0.00 | 69 | 1013.3 |
| 20260503224927 | 52 | 69 | 2.6 | 6.1 | 0.00 | 0.00 | 0.00 | 70 | 1013.4 |
| 20260503224205 | 52 | 68 | 2.6 | 6.1 | 0.00 | 0.00 | 0.00 | 70 | 1013.5 |
| 20260503223505 | 52 | 53 | 1.7 | 4.3 | 0.00 | 0.00 | 0.00 | 72 | 1013.8 |
| 20260503222805 | 52 | 59 | 1.7 | 4.3 | 0.00 | 0.00 | 0.00 | 71 | 1014.0 |
| 20260503222105 | 52 | 59 | 1.7 | 4.3 | 0.00 | 0.00 | 0.00 | 71 | 1014.1 |
| 20260503221426 | 52 | 59 | 1.7 | 3.5 | 0.00 | 0.00 | 0.00 | 72 | 1014.0 |
| 20260503220705 | 52 | 86 | 1.7 | 3.5 | 0.00 | 0.00 | 0.00 | 73 | 1014.1 |
| 20260503220005 | 52 | 61 | 0.9 | 3.5 | 0.00 | 0.00 | 0.00 | 74 | 1014.0 |
| 20260503215605 | 52 | 32 | 0.9 | 3.5 | 0.00 | 0.00 | 0.00 | 73 | 1014.0 |